Vorticity
nan nan nan nan nan nan nan nan nan nan nan nan nan nan nan nan nan nan nan nan nan nan nan nan nan nan nan nan nan nan nan nan nan nan nan nan nan nan nan nan nan nan nan nan
nan 9 13 9 13 3 5 10 11 9 7 8 5 6 10 9 10 5 9 7 7 10 8 10 9 5 6 5 12 10 16 18 8 4 5 10 11 16 16 8 10 12 7 nan
nan 10 12 10 12 3 4 8 12 9 10 6 12 10 9 7 7 8 5 7 4 8 13 7 5 7 3 4 11 10 17 14 13 12 8 14 12 5 8 10 8 11 6 nan
nan 14 8 12 10 6 4 8 10 10 10 11 9 4 13 11 7 12 6 7 10 3 9 10 5 4 3 6 9 15 15 11 10 10 8 8 9 7 5 5 6 8 7 nan
nan 10 10 14 12 6 3 8 9 10 10 15 15 7 3 8 9 11 7 7 13 11 4 1 4 6 7 5 4 8 14 15 9 5 9 9 7 6 6 8 7 8 8 nan
nan 10 13 14 11 4 3 8 8 9 17 11 8 12 8 7 8 9 11 13 9 13 10 7 4 8 12 6 3 6 12 15 11 7 8 11 20 20 12 9 8 7 8 nan
nan 11 12 15 11 1 0 7 12 10 7 13 11 4 6 9 13 11 10 11 4 4 15 18 15 15 14 13 10 5 6 10 9 12 9 6 7 14 13 13 12 12 12 nan
nan 12 11 10 10 5 4 6 6 11 14 13 8 7 8 10 12 11 15 11 6 6 11 17 18 14 17 20 19 10 4 4 8 14 4 3 14 16 12 10 10 14 8 nan
nan 11 11 11 11 5 2 9 5 2 11 16 13 14 11 11 13 14 15 19 16 5 8 12 13 8 13 16 19 18 11 6 4 8 10 11 12 9 11 12 16 5 3 nan
nan 10 10 11 11 6 1 11 11 3 8 8 14 12 12 11 8 11 16 19 14 7 6 11 11 8 9 12 12 16 13 14 11 3 6 9 7 6 11 11 1 -1 7 nan
nan 10 11 12 12 8 2 7 14 5 5 15 20 11 6 6 4 10 9 8 11 13 10 10 10 11 9 8 14 13 9 8 12 9 9 13 14 13 5 7 4 6 10 nan
nan 11 13 14 14 12 1 4 13 8 2 17 20 14 10 11 7 3 6 8 13 10 9 9 9 9 12 13 10 7 5 8 9 12 6 6 7 6 10 9 10 9 11 nan
nan 13 13 14 16 14 3 2 11 9 7 8 20 19 12 12 15 2 2 10 8 9 8 10 12 12 11 11 7 8 9 11 8 8 7 -2 2 9 5 7 10 8 9 nan
nan 15 15 16 21 25 7 -1 8 6 8 12 16 20 16 14 12 10 1 4 6 9 13 13 10 11 11 10 13 11 11 11 9 7 13 13 9 1 4 9 9 10 10 nan
nan 14 15 18 23 18 5 9 13 11 5 11 14 20 21 15 14 9 6 6 8 7 11 13 10 10 12 10 11 16 17 12 13 12 14 13 7 5 10 9 10 11 12 nan
nan 16 14 13 20 2 -4 12 18 10 10 13 10 12 26 18 13 15 10 5 10 7 10 11 14 10 6 13 11 14 11 11 13 16 7 10 17 10 10 11 11 13 13 nan
nan 20 26 17 2 -3 2 12 26 12 1 10 13 11 14 20 12 10 13 12 11 11 12 10 9 13 12 11 14 7 5 6 8 10 14 11 10 12 8 12 14 13 12 nan
nan 24 19 15 -2 -6 5 25 22 1 5 11 10 11 14 12 10 12 11 14 12 11 11 12 13 12 11 11 11 6 7 14 9 3 11 15 9 11 10 11 13 12 11 nan
nan 14 1 -2 6 23 24 21 -1 -3 12 12 12 11 11 11 10 11 11 11 11 11 11 14 13 12 11 11 10 8 8 11 10 10 14 16 16 10 11 13 16 16 11 nan
nan -1 7 13 18 12 2 6 7 13 11 10 10 11 14 12 13 12 8 10 10 7 12 11 10 12 12 8 10 9 11 11 14 19 15 11 13 11 12 14 15 15 14 nan
nan 13 14 13 8 -4 7 13 11 10 14 12 13 11 9 11 11 12 11 11 11 10 12 11 12 8 5 8 11 13 14 15 16 17 15 15 16 16 13 12 13 13 13 nan
nan 10 9 5 11 15 11 11 14 13 11 13 13 12 9 10 10 12 13 10 12 14 12 15 9 7 9 10 10 12 14 15 15 16 16 15 16 17 15 13 11 12 13 nan
nan 9 11 8 12 16 16 11 9 11 8 12 13 13 11 11 12 12 14 11 12 13 8 11 13 12 10 12 12 12 14 14 13 13 13 13 13 14 14 11 11 11 11 nan
nan 11 11 15 14 10 13 10 9 10 10 9 14 13 9 13 14 12 12 14 15 11 10 8 11 11 12 13 14 12 11 12 12 11 11 10 11 12 12 12 12 11 9 nan
nan 12 12 13 11 10 11 14 11 9 12 14 13 10 12 13 11 15 16 10 7 11 16 14 13 13 13 12 13 12 11 11 11 11 10 10 10 10 10 11 12 12 11 nan
nan 14 12 10 11 9 10 12 12 9 15 17 12 11 10 10 13 12 12 13 12 16 14 14 13 11 11 11 12 12 11 12 11 11 11 10 11 11 9 10 11 12 12 nan
nan nan nan nan nan nan nan nan nan nan nan nan nan nan nan nan nan nan nan nan nan nan nan nan nan nan nan nan nan nan nan nan nan nan nan nan nan nan nan nan nan nan nan nan
CAPE
33 55 60 54 52 33 50 71 40 69 118 76 33 20 19 12 0 0 0 0 0 1 0 0 0 0 0 0 1 14 0 0 15 1 0 0 5 0 0 1 13 0 8 11
56 69 55 68 63 62 81 57 32 93 149 36 23 31 34 32 6 0 9 17 2 5 8 0 0 0 0 0 0 20 26 5 0 0 0 0 3 0 0 0 0 2 29 7
66 59 56 50 55 78 126 73 61 49 107 32 52 36 41 36 2 14 19 10 13 20 24 21 1 0 0 0 0 0 5 27 8 5 0 0 0 0 0 0 4 3 10 7
68 61 55 70 52 91 156 69 57 51 52 51 25 38 44 39 20 13 8 9 4 14 22 30 14 0 0 0 0 26 34 3 0 0 0 0 0 0 0 0 0 0 0 0
76 71 59 91 38 99 151 56 53 71 66 64 29 42 24 39 16 15 19 6 28 8 15 43 20 8 2 0 0 2 14 2 0 0 0 0 0 0 0 0 0 0 0 0
84 81 94 77 77 139 130 70 73 87 25 41 63 52 43 11 47 29 24 29 18 22 8 36 35 23 19 4 0 0 0 59 0 0 0 0 0 0 0 0 0 0 0 0
71 64 114 103 88 125 127 97 87 83 13 35 53 27 23 30 16 60 36 7 13 17 16 23 21 33 15 4 3 0 0 61 61 6 0 0 0 0 0 0 0 0 0 0
81 102 81 49 90 84 243 162 95 107 59 17 21 35 33 27 44 45 39 10 18 6 15 65 43 54 54 17 0 0 0 29 45 39 31 0 0 0 0 0 0 0 0 0
109 115 106 105 112 138 199 244 166 102 19 42 30 38 35 48 27 35 2 15 16 14 48 124 28 41 25 35 22 3 3 31 77 52 9 2 0 0 0 0 0 0 0 0
101 116 98 100 111 131 179 102 214 127 35 12 25 50 39 42 55 44 47 35 33 23 92 64 50 28 18 30 30 27 28 46 46 30 61 28 0 0 0 45 21 0 0 0
101 122 124 125 134 122 191 77 192 140 19 46 62 30 47 46 48 36 55 45 12 17 120 71 43 42 27 16 31 11 11 29 39 33 25 18 0 0 3 149 22 0 0 0
93 95 101 105 120 123 150 143 196 228 53 67 34 28 106 39 23 52 43 45 21 49 66 49 47 53 41 14 25 38 51 12 20 8 20 29 34 98 0 0 5 9 4 6
70 64 65 68 84 141 112 70 181 90 42 12 62 73 19 68 61 41 74 34 28 52 45 49 64 47 54 54 31 24 6 13 45 38 32 33 5 9 0 0 0 0 0 0
56 31 32 50 70 118 109 35 37 66 17 58 50 8 35 14 56 50 40 36 22 33 59 72 78 54 35 59 42 33 28 42 33 33 30 21 1 0 3 0 0 0 0 0
49 43 40 35 59 97 49 45 50 31 66 94 68 6 5 15 31 49 58 52 39 59 108 54 96 56 63 57 37 24 20 16 43 40 26 1 2 0 0 0 0 0 0 0
37 42 34 32 38 72 13 1 19 22 62 55 48 7 0 8 17 31 42 68 62 53 28 62 83 75 35 64 48 42 2 1 2 6 5 5 4 4 0 0 0 0 0 0
14 30 48 36 53 21 5 55 23 14 29 8 19 39 4 0 24 47 38 47 50 75 54 52 48 45 93 63 45 0 0 0 0 1 1 2 2 0 0 0 0 0 0 0
42 50 36 35 54 13 13 67 6 24 27 44 46 43 55 4 23 33 52 53 54 13 27 33 38 56 54 54 0 0 0 0 0 1 0 0 1 0 0 0 0 0 0 0
46 37 55 30 18 23 45 13 11 45 18 78 16 47 27 27 27 38 65 76 12 18 21 7 45 28 69 3 3 1 3 1 1 0 1 3 1 1 0 1 1 1 0 0
24 0 2 1 44 17 17 11 3 6 27 30 30 14 5 45 34 55 66 71 70 90 13 8 19 7 4 3 2 3 3 4 4 3 2 1 3 2 1 3 2 1 2 2
1 4 3 15 4 20 8 10 35 14 17 8 18 14 21 15 74 49 63 37 86 58 11 30 6 8 6 3 5 5 4 5 4 2 7 7 6 6 3 5 7 6 5 6
5 0 0 0 5 10 9 10 6 5 7 14 19 12 9 10 3 130 37 80 20 61 7 10 8 9 5 4 5 5 5 5 5 7 9 9 8 10 9 10 7 7 6 6
0 0 0 0 0 1 6 22 29 15 4 8 9 20 6 4 11 4 81 149 13 5 5 3 8 7 5 5 4 6 9 6 6 8 8 5 8 8 6 6 6 5 4 5
0 0 0 0 0 5 7 6 5 5 1 5 9 21 14 9 7 4 3 5 6 4 3 3 11 9 9 7 10 6 9 9 7 8 5 4 4 5 5 4 4 2 2 3
0 0 1 5 9 9 8 7 6 5 7 7 16 5 12 7 1 3 2 2 3 3 6 11 15 12 10 11 10 7 5 5 5 6 3 3 3 1 3 3 4 2 3 3
0 2 5 6 6 8 7 9 8 8 4 6 4 0 0 2 2 0 2 1 2 7 15 16 14 8 7 7 7 8 7 6 6 5 3 3 2 3 5 3 3 3 3 2
1 8 14 9 8 6 7 11 9 8 5 7 1 0 3 0 0 1 5 6 13 18 18 18 14 8 7 5 5 5 6 6 6 5 5 6 7 6 4 4 4 3 3 1